{"data":{"norad_id":66190,"epoch":"2026-05-24T23:46:21.842976Z","epoch_age_seconds":76611,"freshness":"FRESH","line1":"1 66190U 25243P   26144.99053059  .00019552  00000+0  67036-3 0  9991","line2":"2 66190  53.1577 250.9963 0000601  47.4804 312.6247 15.30208362 32336","mean_motion":15.30208362,"eccentricity":6.01e-5,"inclination_deg":53.1577,"raan_deg":250.9963,"arg_perigee_deg":47.4804,"mean_anomaly_deg":312.6247,"bstar":0.00067036,"rev_number":3233,"period_min":94.104831456933,"perigee_km":474.77821714945,"apogee_km":475.60198706712,"semimajor_km":6853.3271021083,"source":"CELESTRAK","updated_at":"2026-05-25T13:38:21.120657Z"}}